This is the latest recevied weather packets stored in our database for station/object M0HZQ-1. If no packets are shown the sender has not sent any weather packets the latest 10 day(s).
| Time | Temp. | Humidity | Pressure | Rain* | Wind** | Luminosity | Snow |
|---|---|---|---|---|---|---|---|
| 1777500144 | 13.33° C | 43% | 1024.5 hPa | 0 mm | - | - | - |
| 1777498994 | 13.33° C | 43% | 1024.2 hPa | 0 mm | - | - | - |
| 1777497817 | 13.33° C | 41% | 1024.2 hPa | 0 mm | - | - | - |
| 1777496669 | 13.33° C | 40% | 1024.3 hPa | 0 mm | - | - | - |
| 1777495604 | 13.89° C | 39% | 1024.1 hPa | 0 mm | - | - | - |
| 1777494564 | 13.89° C | 38% | 1024 hPa | 0 mm | - | - | - |
| 1777493389 | 14.44° C | 37% | 1023.9 hPa | 0 mm | - | - | - |
| 1777492264 | 14.44° C | 36% | 1023.9 hPa | 0 mm | - | - | - |
| 1777491109 | 14.44° C | 36% | 1023.6 hPa | 0 mm | - | - | - |
| 1777490074 | 15° C | 35% | 1023.6 hPa | 0 mm | - | - | - |
| 1777489024 | 15° C | 34% | 1023.5 hPa | 0 mm | - | - | - |
| 1777487909 | 15.56° C | 33% | 1023.3 hPa | 0 mm | - | - | - |
| 1777486744 | 16.11° C | 31% | 1023.2 hPa | 0 mm | - | - | - |
| 1777485637 | 16.11° C | 31% | 1023.2 hPa | 0 mm | - | - | - |
| 1777484624 | 16.67° C | 30% | 1023.3 hPa | 0 mm | - | - | - |
| 1777483462 | 17.22° C | 30% | 1023.4 hPa | 0 mm | - | - | - |
| 1777482297 | 16.67° C | 30% | 1023.5 hPa | 0 mm | - | - | - |
| 1777481130 | 17.22° C | 30% | 1023.6 hPa | 0 mm | - | - | - |
| 1777480034 | 17.22° C | 30% | 1023.7 hPa | 0 mm | - | - | - |
| 1777478857 | 17.22° C | 30% | 1023.8 hPa | 0 mm | - | - | - |
| 1777477749 | 18.33° C | 29% | 1023.8 hPa | 0 mm | - | - | - |
| 1777476729 | 17.78° C | 29% | 1023.8 hPa | 0 mm | - | - | - |
| 1777475677 | 18.33° C | 29% | 1024 hPa | 0 mm | - | - | - |
| 1777474484 | 18.33° C | 29% | 1024.3 hPa | 0 mm | - | - | - |
| 1777473307 | 17.78° C | 30% | 1024.3 hPa | 0 mm | - | - | - |
* Rain latest hour (hover to see other rain measurements)
** Current wind speed in m/s (hover to see current wind gust speed)